This is the latest recevied weather packets stored in our database for station/object KB4RFE. If no packets are shown the sender has not sent any weather packets the latest 10 day(s).
| Time | Temp. | Humidity | Pressure | Rain* | Wind** | Luminosity | Snow |
|---|---|---|---|---|---|---|---|
| 1777821458 | 20° C | 48% | 1022.7 hPa | 0 mm | - | 789 W/m² | - |
| 1777821156 | 20° C | 52% | 1022.8 hPa | 0 mm | - | 779 W/m² | - |
| 1777820852 | 19.44° C | 49% | 1022.5 hPa | 0 mm | - | 765 W/m² | - |
| 1777820548 | 18.89° C | 53% | 1022.6 hPa | 0 mm | - | 766 W/m² | - |
| 1777820245 | 18.89° C | 56% | 1022.7 hPa | 0 mm | - | 739 W/m² | - |
| 1777819943 | 18.33° C | 52% | 1022.9 hPa | 0 mm | - | 724 W/m² | - |
| 1777819640 | 18.33° C | 56% | 1022.7 hPa | 0 mm | - | 709 W/m² | - |
| 1777819338 | 17.78° C | 57% | 1022.8 hPa | 0 mm | - | 689 W/m² | - |
| 1777819034 | 17.78° C | 57% | 1022.8 hPa | 0 mm | - | 669 W/m² | - |
| 1777818732 | 18.33° C | 60% | 1022.6 hPa | 0 mm | - | 657 W/m² | - |
| 1777818428 | 17.78° C | 59% | 1022.6 hPa | 0 mm | - | 635 W/m² | - |
| 1777818125 | 17.78° C | 61% | 1022.5 hPa | 0 mm | - | 617 W/m² | - |
| 1777817821 | 17.78° C | 62% | 1022.6 hPa | 0 mm | - | 603 W/m² | - |
| 1777817519 | 17.22° C | 64% | 1022.3 hPa | 0 mm | - | 590 W/m² | - |
| 1777817215 | 16.67° C | 63% | 1022.2 hPa | 0 mm | - | 572 W/m² | - |
| 1777816913 | 16.67° C | 61% | 1022.3 hPa | 0 mm | - | 556 W/m² | - |
| 1777816609 | 16.67° C | 68% | 1022.1 hPa | 0 mm | - | 537 W/m² | - |
| 1777816306 | 16.67° C | 65% | 1022.2 hPa | 0 mm | - | 516 W/m² | - |
| 1777816004 | 16.67° C | 70% | 1022 hPa | 0 mm | - | 494 W/m² | - |
| 1777815701 | 16.11° C | 72% | 1022.2 hPa | 0 mm | - | 476 W/m² | - |
| 1777815398 | 15.56° C | 75% | 1021.9 hPa | 0 mm | - | 454 W/m² | - |
| 1777815095 | 15.56° C | 77% | 1021.9 hPa | 0 mm | - | 430 W/m² | - |
| 1777814791 | 15.56° C | 78% | 1021.9 hPa | 0 mm | - | 416 W/m² | - |
| 1777814488 | 15° C | 83% | 1021.9 hPa | 0 mm | - | 394 W/m² | - |
| 1777814186 | 14.44° C | 84% | 1022 hPa | 0 mm | - | 389 W/m² | - |
* Rain latest hour (hover to see other rain measurements)
** Current wind speed in m/s (hover to see current wind gust speed)